Time,TemperatureF,DewpointF,PressureIn,WindDirection,WindDirectionDegrees,WindSpeedMPH,WindSpeedGustMPH,Humidity,HourlyPrecipIn,Conditions,Clouds,dailyrainin,SoftwareType,DateUTC
2013-03-26 00:02:00,32.0,26.0,30.13,NW,313,0.0,7.0,79,0.00,,,0.14,,2013-03-26 05:02:00,
2013-03-26 00:12:00,32.0,26.0,30.13,NW,313,0.0,7.0,79,0.00,,,0.14,,2013-03-26 05:12:00,
2013-03-26 00:22:00,32.0,26.0,30.13,WNW,282,2.0,7.0,78,0.00,,,0.14,,2013-03-26 05:22:00,
2013-03-26 00:32:00,32.0,26.0,30.13,NNE,25,3.0,8.0,78,0.00,,,0.14,,2013-03-26 05:32:00,
2013-03-26 00:42:00,32.0,26.0,30.13,NNE,25,3.0,8.0,78,0.00,,,0.14,,2013-03-26 05:42:00,
2013-03-26 00:52:00,32.0,26.0,30.13,NNE,25,3.0,8.0,78,0.00,,,0.14,,2013-03-26 05:52:00,
2013-03-26 01:02:00,32.0,26.0,30.14,NW,309,2.0,9.0,77,0.00,,,0.14,,2013-03-26 06:02:00,
2013-03-26 01:12:00,32.0,26.0,30.14,NW,309,2.0,9.0,77,0.00,,,0.14,,2013-03-26 06:12:00,
2013-03-26 01:22:00,32.0,26.0,30.14,NW,305,2.0,6.0,77,0.00,,,0.14,,2013-03-26 06:22:00,
2013-03-26 01:32:00,31.0,25.0,30.14,WNW,288,2.0,6.0,77,0.00,,,0.14,,2013-03-26 06:32:00,
2013-03-26 01:42:00,31.0,25.0,30.14,WNW,288,2.0,6.0,77,0.00,,,0.14,,2013-03-26 06:42:00,
2013-03-26 01:52:00,31.0,25.0,30.14,NW,314,2.0,9.0,77,0.00,,,0.14,,2013-03-26 06:52:00,
2013-03-26 02:02:00,31.0,25.0,30.14,West,272,2.0,9.0,77,0.00,,,0.14,,2013-03-26 07:02:00,
2013-03-26 02:12:00,31.0,25.0,30.14,West,272,2.0,9.0,77,0.00,,,0.14,,2013-03-26 07:12:00,
2013-03-26 02:22:00,31.0,25.0,30.14,West,277,2.0,8.0,78,0.00,,,0.14,,2013-03-26 07:22:00,
2013-03-26 02:33:00,31.0,25.0,30.14,NNW,334,3.0,9.0,78,0.00,,,0.14,,2013-03-26 07:33:00,
2013-03-26 02:42:00,31.0,25.0,30.14,NNW,334,3.0,9.0,78,0.00,,,0.14,,2013-03-26 07:42:00,
2013-03-26 02:52:00,31.0,25.0,30.14,NNW,334,3.0,9.0,78,0.00,,,0.14,,2013-03-26 07:52:00,
2013-03-26 03:02:00,31.0,25.0,30.14,NW,311,2.0,7.0,78,0.00,,,0.14,,2013-03-26 08:02:00,
2013-03-26 03:12:00,31.0,25.0,30.14,NW,311,2.0,7.0,78,0.00,,,0.14,,2013-03-26 08:12:00,
2013-03-26 03:22:00,31.0,25.0,30.14,WNW,289,2.0,7.0,78,0.00,,,0.14,,2013-03-26 08:22:00,
2013-03-26 03:32:00,31.0,25.0,30.14,WSW,241,3.0,7.0,78,0.00,,,0.14,,2013-03-26 08:32:00,
2013-03-26 03:42:00,31.0,25.0,30.14,WSW,241,3.0,7.0,78,0.00,,,0.14,,2013-03-26 08:42:00,
2013-03-26 03:52:00,31.0,25.0,30.14,North,9,1.0,7.0,78,0.00,,,0.14,,2013-03-26 08:52:00,
2013-03-26 04:02:00,31.0,25.0,30.14,West,273,3.0,8.0,78,0.00,,,0.14,,2013-03-26 09:02:00,
2013-03-26 04:12:00,31.0,25.0,30.14,West,273,3.0,8.0,78,0.00,,,0.14,,2013-03-26 09:12:00,
2013-03-26 04:22:00,31.0,25.0,30.14,WNW,286,2.0,5.0,79,0.00,,,0.14,,2013-03-26 09:22:00,
2013-03-26 04:33:00,31.0,25.0,30.14,NW,315,2.0,6.0,79,0.00,,,0.14,,2013-03-26 09:33:00,
2013-03-26 04:43:00,31.0,25.0,30.14,NW,315,2.0,6.0,79,0.00,,,0.14,,2013-03-26 09:43:00,
2013-03-26 04:52:00,31.0,25.0,30.15,WNW,292,3.0,7.0,79,0.00,,,0.14,,2013-03-26 09:52:00,
2013-03-26 05:02:00,31.0,25.0,30.15,WNW,298,2.0,7.0,79,0.00,,,0.14,,2013-03-26 10:02:00,
2013-03-26 05:12:00,31.0,25.0,30.15,WNW,298,2.0,7.0,79,0.00,,,0.14,,2013-03-26 10:12:00,
2013-03-26 05:22:00,31.0,26.0,30.15,West,278,2.0,5.0,80,0.00,,,0.14,,2013-03-26 10:22:00,
2013-03-26 05:32:00,30.0,25.0,30.16,WNW,291,2.0,5.0,80,0.00,,,0.14,,2013-03-26 10:32:00,
2013-03-26 05:42:00,30.0,25.0,30.16,WNW,291,2.0,5.0,80,0.00,,,0.14,,2013-03-26 10:42:00,
2013-03-26 05:52:00,30.0,25.0,30.16,West,277,2.0,6.0,80,0.00,,,0.14,,2013-03-26 10:52:00,
2013-03-26 06:03:00,30.0,25.0,30.16,NW,310,2.0,6.0,80,0.00,,,0.14,,2013-03-26 11:03:00,
2013-03-26 06:12:00,30.0,25.0,30.16,NW,310,2.0,6.0,80,0.00,,,0.14,,2013-03-26 11:12:00,
2013-03-26 06:22:00,30.0,25.0,30.16,West,277,2.0,7.0,80,0.00,,,0.14,,2013-03-26 11:22:00,
2013-03-26 06:32:00,30.0,25.0,30.17,WNW,292,2.0,6.0,80,0.00,,,0.14,,2013-03-26 11:32:00,
2013-03-26 06:42:00,30.0,25.0,30.17,WNW,292,2.0,6.0,80,0.00,,,0.14,,2013-03-26 11:42:00,
2013-03-26 06:52:00,30.0,25.0,30.17,WNW,293,2.0,7.0,80,0.00,,,0.14,,2013-03-26 11:52:00,
2013-03-26 07:03:00,30.0,25.0,30.17,WNW,293,2.0,7.0,80,0.00,,,0.14,,2013-03-26 12:03:00,
2013-03-26 07:12:00,30.0,24.0,30.18,NNW,327,2.0,7.0,79,0.00,,,0.14,,2013-03-26 12:12:00,
2013-03-26 07:22:00,30.0,24.0,30.19,NW,312,2.0,7.0,79,0.00,,,0.14,,2013-03-26 12:22:00,
2013-03-26 07:32:00,30.0,24.0,30.19,NW,305,2.0,6.0,79,0.00,,,0.14,,2013-03-26 12:32:00,
2013-03-26 07:42:00,30.0,24.0,30.19,NW,305,2.0,6.0,79,0.00,,,0.14,,2013-03-26 12:42:00,
2013-03-26 07:52:00,30.0,24.0,30.19,NW,305,2.0,6.0,79,0.00,,,0.14,,2013-03-26 12:52:00,
2013-03-26 08:03:00,30.0,24.0,30.20,NW,313,3.0,7.0,79,0.00,,,0.14,,2013-03-26 13:03:00,
2013-03-26 08:12:00,30.0,24.0,30.20,NW,313,3.0,7.0,79,0.00,,,0.14,,2013-03-26 13:12:00,
2013-03-26 08:22:00,31.0,25.0,30.21,NW,314,2.0,6.0,79,0.00,,,0.14,,2013-03-26 13:22:00,
2013-03-26 08:32:00,31.0,25.0,30.22,West,267,2.0,6.0,78,0.00,,,0.14,,2013-03-26 13:32:00,
2013-03-26 08:42:00,31.0,25.0,30.22,West,267,2.0,6.0,78,0.00,,,0.14,,2013-03-26 13:42:00,
2013-03-26 08:52:00,31.0,25.0,30.22,NW,309,2.0,7.0,78,0.00,,,0.14,,2013-03-26 13:52:00,
2013-03-26 09:02:00,32.0,26.0,30.22,WNW,298,2.0,5.0,77,0.00,,,0.14,,2013-03-26 14:02:00,
2013-03-26 09:11:00,32.0,26.0,30.22,WNW,298,2.0,5.0,77,0.00,,,0.14,,2013-03-26 14:11:00,
2013-03-26 09:22:00,33.0,26.0,30.23,WNW,294,1.0,8.0,75,0.00,,,0.14,,2013-03-26 14:22:00,
2013-03-26 09:32:00,33.0,25.0,30.23,West,261,3.0,9.0,73,0.01,,,0.15,,2013-03-26 14:32:00,
2013-03-26 09:42:00,33.0,25.0,30.23,West,261,3.0,9.0,73,0.01,,,0.15,,2013-03-26 14:42:00,
2013-03-26 09:52:00,34.0,26.0,30.23,NW,321,3.0,8.0,72,0.01,,,0.15,,2013-03-26 14:52:00,
2013-03-26 10:02:00,34.0,25.0,30.23,WNW,294,3.0,8.0,70,0.01,,,0.15,,2013-03-26 15:02:00,
2013-03-26 10:12:00,34.0,25.0,30.23,WNW,294,3.0,8.0,70,0.01,,,0.15,,2013-03-26 15:12:00,
2013-03-26 10:22:00,35.0,26.0,30.24,NW,308,3.0,10.0,69,0.01,,,0.15,,2013-03-26 15:22:00,
2013-03-26 10:33:00,35.0,26.0,30.24,WNW,293,4.0,11.0,69,0.00,,,0.15,,2013-03-26 15:33:00,
2013-03-26 10:43:00,35.0,26.0,30.24,WNW,293,4.0,11.0,69,0.00,,,0.15,,2013-03-26 15:43:00,
2013-03-26 10:52:00,35.0,26.0,30.24,NW,304,4.0,9.0,69,0.00,,,0.15,,2013-03-26 15:52:00,
2013-03-26 11:02:00,36.0,26.0,30.24,NW,319,4.0,8.0,67,0.00,,,0.15,,2013-03-26 16:02:00,
2013-03-26 11:12:00,36.0,26.0,30.24,NW,319,4.0,8.0,67,0.00,,,0.15,,2013-03-26 16:12:00,
2013-03-26 11:22:00,37.0,26.0,30.24,NNW,338,1.0,9.0,65,0.00,,,0.15,,2013-03-26 16:22:00,
2013-03-26 11:32:00,38.0,26.0,30.25,NW,306,3.0,9.0,61,0.00,,,0.14,,2013-03-26 16:32:00,
2013-03-26 11:42:00,38.0,26.0,30.25,NW,306,3.0,9.0,61,0.00,,,0.14,,2013-03-26 16:42:00,
2013-03-26 11:53:00,38.0,25.0,30.25,WNW,286,3.0,11.0,60,0.00,,,0.14,,2013-03-26 16:53:00,
2013-03-26 12:02:00,38.0,26.0,30.25,NW,323,3.0,7.0,62,0.00,,,0.14,,2013-03-26 17:02:00,
2013-03-26 12:12:00,38.0,26.0,30.25,NW,323,3.0,7.0,62,0.00,,,0.14,,2013-03-26 17:12:00,
2013-03-26 12:23:00,38.0,23.0,30.25,NNW,338,3.0,10.0,54,0.00,,,0.14,,2013-03-26 17:23:00,
2013-03-26 12:32:00,37.0,22.0,30.25,WSW,241,4.0,11.0,54,0.00,,,0.13,,2013-03-26 17:32:00,
2013-03-26 12:42:00,37.0,22.0,30.25,WSW,241,4.0,11.0,54,0.00,,,0.13,,2013-03-26 17:42:00,
2013-03-26 12:52:00,37.0,24.0,30.25,NW,316,3.0,11.0,59,0.00,,,0.13,,2013-03-26 17:52:00,
2013-03-26 13:02:00,38.0,25.0,30.25,NW,307,2.0,8.0,59,0.00,,,0.13,,2013-03-26 18:02:00,
2013-03-26 13:12:00,38.0,25.0,30.25,NW,307,2.0,8.0,59,0.00,,,0.13,,2013-03-26 18:12:00,
2013-03-26 13:23:00,38.0,22.0,30.25,WNW,299,4.0,8.0,53,0.00,,,0.13,,2013-03-26 18:23:00,
2013-03-26 13:34:00,37.0,23.0,30.25,West,276,4.0,9.0,56,0.00,,,0.09,,2013-03-26 18:34:00,
2013-03-26 13:42:00,37.0,23.0,30.25,West,276,4.0,9.0,56,0.00,,,0.09,,2013-03-26 18:42:00,
2013-03-26 13:52:00,37.0,24.0,30.25,WNW,302,3.0,8.0,58,0.00,,,0.09,,2013-03-26 18:52:00,
2013-03-26 14:02:00,37.0,24.0,30.25,WNW,286,4.0,9.0,59,0.00,,,0.09,,2013-03-26 19:02:00,
2013-03-26 14:12:00,37.0,24.0,30.25,WNW,286,4.0,9.0,59,0.00,,,0.09,,2013-03-26 19:12:00,
2013-03-26 14:22:00,36.0,23.0,30.25,WNW,302,4.0,10.0,59,0.00,,,0.09,,2013-03-26 19:22:00,
2013-03-26 14:32:00,37.0,24.0,30.25,WNW,301,3.0,9.0,58,0.00,,,0.05,,2013-03-26 19:32:00,
2013-03-26 14:42:00,37.0,24.0,30.25,WNW,301,3.0,9.0,58,0.00,,,0.05,,2013-03-26 19:42:00,
2013-03-26 14:53:00,37.0,23.0,30.25,NW,314,2.0,9.0,57,0.00,,,0.05,,2013-03-26 19:53:00,
2013-03-26 15:02:00,37.0,24.0,30.25,WNW,293,2.0,10.0,58,0.00,,,0.05,,2013-03-26 20:02:00,
2013-03-26 15:22:00,37.0,24.0,30.25,West,280,3.0,12.0,58,0.00,,,0.05,,2013-03-26 20:22:00,
2013-03-26 15:32:00,37.0,24.0,30.25,North,11,4.0,11.0,59,0.00,,,0.02,,2013-03-26 20:32:00,
2013-03-26 15:40:00,37.0,25.0,30.25,NW,309,3.0,10.0,62,0.00,,,0.02,,2013-03-26 20:40:00,
2013-03-26 15:42:00,37.0,24.0,30.25,North,11,4.0,11.0,59,0.00,,,0.02,,2013-03-26 20:42:00,
2013-03-26 15:52:00,37.0,25.0,30.25,NNW,327,3.0,6.0,61,0.00,,,0.02,,2013-03-26 20:52:00,
2013-03-26 16:02:00,37.0,25.0,30.25,NW,309,3.0,10.0,62,0.00,,,0.02,,2013-03-26 21:02:00,
2013-03-26 16:12:00,37.0,25.0,30.25,NW,309,3.0,10.0,62,0.00,,,0.02,,2013-03-26 21:12:00,
2013-03-26 16:22:00,37.0,25.0,30.25,NW,309,3.0,10.0,62,0.00,,,0.02,,2013-03-26 21:22:00,
2013-03-26 16:33:00,37.0,25.0,30.25,NW,309,3.0,10.0,62,0.00,,,0.02,,2013-03-26 21:33:00,
2013-03-26 17:22:00,36.0,24.0,30.25,NNW,327,3.0,8.0,62,0.00,,,0.01,,2013-03-26 22:22:00,
2013-03-26 17:33:00,36.0,24.0,30.25,NNW,327,3.0,8.0,62,0.00,,,0.01,,2013-03-26 22:33:00,
2013-03-26 17:42:00,36.0,24.0,30.25,NNW,327,3.0,8.0,62,0.00,,,0.01,,2013-03-26 22:42:00,
2013-03-26 17:52:00,36.0,24.0,30.25,NNW,327,3.0,8.0,62,0.00,,,0.01,,2013-03-26 22:52:00,
2013-03-26 18:22:00,36.0,26.0,30.26,West,275,2.0,4.0,67,0.00,,,0.01,,2013-03-26 23:22:00,
2013-03-26 18:32:00,35.0,25.0,30.27,WNW,288,2.0,6.0,66,0.00,,,0.01,,2013-03-26 23:32:00,
2013-03-26 18:42:00,35.0,25.0,30.27,WNW,288,2.0,6.0,66,0.00,,,0.01,,2013-03-26 23:42:00,
2013-03-26 18:52:00,34.0,27.0,30.27,West,275,2.0,5.0,74,0.00,,,0.01,,2013-03-26 23:52:00,
2013-03-26 19:02:00,34.0,27.0,30.27,West,276,2.0,8.0,74,0.00,,,0.01,,2013-03-27 00:02:00,
2013-03-26 19:12:00,34.0,27.0,30.27,West,276,2.0,8.0,74,0.00,,,0.01,,2013-03-27 00:12:00,
2013-03-26 19:22:00,34.0,27.0,30.27,West,267,1.0,6.0,75,0.00,,,0.01,,2013-03-27 00:22:00,
2013-03-26 19:32:00,34.0,27.0,30.28,West,268,1.0,5.0,76,0.00,,,0.01,,2013-03-27 00:32:00,
2013-03-26 19:42:00,34.0,27.0,30.28,West,268,1.0,5.0,76,0.00,,,0.01,,2013-03-27 00:42:00,
2013-03-26 19:52:00,33.0,26.0,30.27,West,281,1.0,5.0,76,0.00,,,0.01,,2013-03-27 00:52:00,
2013-03-26 20:02:00,34.0,27.0,30.28,West,276,2.0,4.0,74,0.00,,,0.01,,2013-03-27 01:02:00,
2013-03-26 20:12:00,34.0,27.0,30.28,West,276,2.0,4.0,74,0.00,,,0.01,,2013-03-27 01:12:00,
2013-03-26 20:22:00,33.0,26.0,30.28,WSW,257,1.0,5.0,76,0.00,,,0.01,,2013-03-27 01:22:00,
2013-03-26 20:33:00,33.0,27.0,30.28,West,270,0.0,3.0,77,0.00,,,0.01,,2013-03-27 01:33:00,
2013-03-26 20:42:00,33.0,27.0,30.28,West,270,0.0,3.0,77,0.00,,,0.01,,2013-03-27 01:42:00,
2013-03-26 20:52:00,33.0,27.0,30.28,West,265,0.0,4.0,77,0.00,,,0.01,,2013-03-27 01:52:00,
2013-03-26 21:03:00,33.0,27.0,30.29,West,279,0.0,2.0,77,0.00,,,0.01,,2013-03-27 02:03:00,
2013-03-26 21:12:00,33.0,27.0,30.29,West,279,0.0,2.0,77,0.00,,,0.01,,2013-03-27 02:12:00,
2013-03-26 21:22:00,33.0,27.0,30.29,West,275,0.0,4.0,77,0.00,,,0.01,,2013-03-27 02:22:00,
2013-03-26 21:32:00,33.0,27.0,30.29,WNW,301,0.0,4.0,77,0.00,,,0.01,,2013-03-27 02:32:00,
2013-03-26 21:42:00,33.0,27.0,30.29,WNW,301,0.0,4.0,77,0.00,,,0.01,,2013-03-27 02:42:00,
2013-03-26 21:52:00,33.0,27.0,30.29,West,275,1.0,3.0,77,0.00,,,0.01,,2013-03-27 02:52:00,
2013-03-26 22:02:00,33.0,26.0,30.29,WNW,286,1.0,4.0,76,0.00,,,0.01,,2013-03-27 03:02:00,
2013-03-26 22:12:00,33.0,26.0,30.29,WNW,286,1.0,4.0,76,0.00,,,0.01,,2013-03-27 03:12:00,
2013-03-26 22:22:00,33.0,26.0,30.29,West,281,0.0,3.0,76,0.00,,,0.01,,2013-03-27 03:22:00,
2013-03-26 22:33:00,33.0,27.0,30.29,West,259,0.0,2.0,77,0.00,,,0.01,,2013-03-27 03:33:00,
2013-03-26 22:42:00,33.0,27.0,30.29,West,259,0.0,2.0,77,0.00,,,0.01,,2013-03-27 03:42:00,
2013-03-26 22:52:00,33.0,27.0,30.29,West,259,0.0,2.0,78,0.00,,,0.01,,2013-03-27 03:52:00,
2013-03-26 23:02:00,33.0,27.0,30.30,West,259,0.0,1.0,78,0.00,,,0.01,,2013-03-27 04:02:00,
2013-03-26 23:13:00,33.0,27.0,30.30,West,259,0.0,1.0,78,0.00,,,0.01,,2013-03-27 04:13:00,
2013-03-26 23:23:00,32.0,26.0,30.30,WNW,301,0.0,3.0,79,0.00,,,0.01,,2013-03-27 04:23:00,
2013-03-26 23:33:00,32.0,26.0,30.30,WNW,301,0.0,1.0,79,0.00,,,0.01,,2013-03-27 04:33:00,
2013-03-26 23:42:00,32.0,26.0,30.30,WNW,301,0.0,1.0,79,0.00,,,0.01,,2013-03-27 04:42:00,
2013-03-26 23:52:00,31.0,26.0,30.30,West,274,0.0,2.0,80,0.00,,,0.01,,2013-03-27 04:52:00,